#timestamp,LO_Frequency,Hit,StdDev 
1653451215.1,286047006.0,P
1653451235.9,286047003.2,N
1653451255.7,286047005.6,N
1653451275.6,286047003.1,N
1653451295.4,286047006.0,N
1653451315.2,286047005.7,N
1653451335.1,286047005.0,N
1653451336.0,286047005.0,N
1653451355.8,286047007.5,Y
1653451375.6,286047001.9,P
1653451395.5,286047002.1,N
1653451415.3,286047001.9,N
1653451435.2,286047004.4,Y
1653451455.9,286047000.7,P
1653451475.7,286047001.0,N
1653451495.6,286047000.3,N
1653451515.4,286047001.2,N
1653451535.2,286046998.2,N
1653451555.1,286046999.0,N
1653451556.0,286046999.0,N
1653451575.8,286046999.0,N
1653451595.7,286046999.0,N
1653451615.5,286046999.0,N
1653451635.3,286046999.0,N
1653451655.2,286046998.8,N
1653451675.0,286047001.2,N
1653451675.9,286047001.2,N
1653451695.8,286046998.7,N
1653451715.6,286047001.1,N
1653451735.4,286046999.4,N
1653451755.3,286046999.6,N
1653451775.1,286046999.4,N
1653451795.9,286046999.3,N
1653451815.7,286046998.7,N
1653451835.5,286047000.3,N
1653451855.4,286047000.6,N
1653451875.2,286047001.1,N
1653451895.0,286046998.3,N
1653451896.0,286046998.3,N
1653451915.8,286047000.5,N
1653451935.6,286047001.2,N
1653451955.5,286047001.0,N
1653451975.3,286047000.9,N
1653451995.1,286047000.2,N
1653452015.9,286047000.6,N
1653452035.7,286047001.1,N
1653452055.6,286047000.5,N
1653452075.4,286047000.4,N
1653452095.2,286047000.6,N
1653452115.1,286047000.6,N
1653452116.0,286047000.6,N
1653452135.8,286047000.8,N
1653452155.6,286046999.7,N
1653452175.5,286047000.4,N
1653452195.3,286047000.6,N
1653452215.2,286047001.1,N
1653452235.9,286047000.9,N
1653452255.7,286047000.3,N
1653452275.6,286047000.7,N
1653452295.4,286047000.5,N
1653452315.2,286047001.0,N
1653452335.1,286046998.4,N
1653452336.0,286046998.4,N
1653452355.8,286047000.7,N
1653452375.7,286047000.6,N
1653452395.5,286047001.1,N
1653452415.3,286047000.8,N
1653452435.2,286046998.1,N
1653452455.0,286046998.2,N
1653452455.9,286046998.2,N
1653452475.7,286047000.2,N
1653452495.6,286047000.4,N
1653452515.4,286047001.0,N
1653452535.3,286047001.1,N
1653452555.1,286047000.5,N
1653452556.0,286047000.5,N
1653452575.8,286047000.5,N
1653452595.7,286047000.5,N
1653452615.5,286047000.3,N
1653452635.3,286047000.9,N
1653452655.2,286047000.4,N
1653452675.0,286046998.1,N
1653452675.9,286046998.1,N
1653452695.8,286047000.4,N
1653452715.6,286047000.4,N
1653452735.4,286047000.5,N
1653452755.3,286047000.7,N
1653452775.1,286047000.9,N
1653452795.9,286047001.0,N
1653452815.7,286046998.1,N
1653452835.5,286047000.5,N
1653452855.4,286046999.9,N
1653452875.2,286047000.2,N
1653452895.0,286047001.0,N
1653452895.9,286047001.0,N
1653452915.8,286047000.7,N
1653452935.6,286047000.4,N
1653452955.5,286047000.9,N
1653452975.3,286047000.9,N
1653452995.1,286047000.6,N
1653453015.9,286047000.9,N
1653453035.7,286047000.8,N
1653453055.5,286047000.7,N
1653453075.4,286047000.8,N
1653453095.2,286047001.2,N
1653453115.1,286047001.2,N
1653453116.0,286047001.2,N
1653453135.8,286046998.6,N
1653453155.6,286046998.1,N
1653453175.5,286047001.2,N
1653453195.3,286046998.6,N
1653453215.2,286046998.6,N
1653453235.9,286046998.2,N
1653453255.7,286047001.2,N
1653453275.6,286047000.9,N
1653453295.4,286047000.6,N
1653453315.3,286047000.5,N
1653453335.1,286047000.2,N
1653453355.8,286047000.3,N
1653453375.7,286047002.6,N
1653453395.5,286046999.8,N
1653453415.7,286047000.0,N
1653453435.5,286047000.6,N
1653453455.4,286046998.2,N
1653453475.2,286047001.2,N
1653453495.0,286047000.4,N
1653453495.9,286047000.4,N
1653453515.8,286046999.8,N
1653453535.6,286046999.7,N
1653453555.4,286047000.1,N
1653453575.3,286047002.7,N
1653453595.1,286047002.8,N
1653453615.9,286047000.1,N
1653453635.7,286046999.7,N
1653453655.5,286047000.1,N
1653453675.4,286047000.6,N
1653453695.2,286047000.4,N
1653453715.0,286047000.2,N
1653453715.9,286047000.2,N
1653453735.8,286046999.8,N
1653453755.6,286047000.2,N
1653453775.5,286047000.3,N
1653453795.3,286047002.0,N
1653453815.1,286047002.2,N
1653453835.9,286047002.6,N
1653453855.7,286047002.8,N
1653453875.5,286047002.2,N
1653453895.4,286047002.0,N
1653453915.2,286047001.8,N
1653453935.1,286047002.1,N
1653453936.0,286047002.1,N
1653453955.8,286047001.7,N
1653453975.6,286047001.5,N
1653453995.5,286047001.9,N
1653454015.3,286047001.6,N
1653454035.2,286047001.9,N
1653454055.9,286047002.1,N
1653454075.7,286047002.0,N
1653454095.6,286047002.8,N
1653454115.4,286046999.7,N
1653454135.2,286047002.7,N
1653454155.1,286047001.5,N
1653454156.0,286047001.5,N
1653454175.8,286047001.6,N
1653454195.7,286047001.3,N
1653454215.5,286047004.3,Y
1653454235.3,286046999.7,P
1653454255.2,286046999.8,N
1653454275.0,286047000.2,N
1653454275.9,286047000.2,N
1653454295.7,286046999.7,N
1653454315.6,286047000.5,N
1653454335.4,286047000.3,N
1653454355.3,286047000.0,N
1653454375.1,286046999.9,N
1653454376.0,286046999.9,N
1653454395.8,286047002.6,Y
1653454415.7,286047002.8,P
1653454435.5,286047000.1,N
1653454455.3,286047000.2,N
1653454475.2,286047000.3,N
1653454495.0,286046999.8,N
1653454495.9,286046999.8,N
1653454515.8,286046999.9,N
1653454535.6,286046998.1,N
1653454555.4,286046998.3,N
1653454575.3,286046998.2,N
1653454595.1,286046998.2,N
1653454615.9,286047000.8,N
1653454635.7,286047000.8,N
1653454655.5,286046998.6,N
1653454675.4,286046998.6,N
1653454695.2,286046999.2,N
1653454715.1,286046999.6,N
1653454716.0,286046999.6,N
1653454735.8,286046999.1,N
1653454755.6,286046998.6,N
1653454775.5,286046998.9,N
1653454795.3,286046998.8,N
